Stations météo

réclame
Mon MeteoGroup
Groningen Eelde, Pays-Bas (6280): Température de l'air & dewpoint: 11.01.2018 08:00:00 - 17.01.2018 08:00:00 (CET)Groningen Eelde, Pays-Bas (6280): Température de l'air 5cm: 11.01.2018 08:00:00 - 17.01.2018 08:00:00 (CET)Groningen Eelde, Pays-Bas (6280): Vitesse du vent & gusts: 11.01.2018 08:00:00 - 17.01.2018 08:00:00 (CET)Groningen Eelde, Pays-Bas (6280): Direction du vent: 11.01.2018 08:00:00 - 17.01.2018 08:00:00 (CET)Groningen Eelde, Pays-Bas (6280): reduced air pressure: 11.01.2018 08:00:00 - 17.01.2018 08:00:00 (CET)Groningen Eelde, Pays-Bas (6280): visibility: 11.01.2018 08:00:00 - 17.01.2018 08:00:00 (CET)Groningen Eelde, Pays-Bas (6280): Quantités de précipitations: 11.01.2018 08:00:00 - 17.01.2018 08:00:00 (CET)
Date & Time tt [°C] td [°C] tt 5cm [°C] ff [km/h] ff [knt] fx [km/h] fx [knt] dd ppp [hPa] vv [km] rr [mm]
17.01.2018 08:00:00 1,0 0,0 0,5 11 6 - - WSW 992,0 10 -
17.01.2018 07:00:00 0,9 0,1 0,5 21 11 32 18 WSW 990,9 2,8 0,6
17.01.2018 06:00:00 0,7 0,1 0,3 16 9 25 14 SW 989,7 10 0,1
17.01.2018 05:00:00 0,8 0,1 0,4 22 12 40 21 WSW 989,2 10 0,7
17.01.2018 04:00:00 0,7 -0,1 0,5 28 15 43 23 W 989,2 4,3 0,3
17.01.2018 03:00:00 1,5 -0,3 0,4 18 10 25 14 WSW 988,4 10 0,0
17.01.2018 02:00:00 1,2 -0,2 0,2 15 8 25 14 SSW 988,3 10 0,0
17.01.2018 01:00:00 1,1 -0,2 0,1 15 8 22 12 SSW 988,7 10 0,0
17.01.2018 00:00:00 0,9 -0,1 0,2 15 8 32 18 SW 989,0 10 0,1
16.01.2018 23:00:00 1,5 0,6 1,2 15 8 29 16 SSW 989,3 10 0,5
16.01.2018 22:00:00 2,0 0,5 1,6 28 15 50 27 SW 989,4 10 0,2
16.01.2018 21:00:00 1,6 -0,2 0,8 15 8 25 14 SW 989,4 10 0,0
16.01.2018 20:00:00 1,5 0,1 0,8 16 9 36 19 SW 989,8 10 0,0
16.01.2018 19:00:00 1,7 0,1 0,9 21 11 - - SW 989,7 10 0,0
16.01.2018 18:00:00 2,5 0,2 1,9 24 13 47 25 WSW 990,1 10 0,0
16.01.2018 17:00:00 3,0 0,5 1,9 21 11 36 19 WSW 990,2 10 0,0
16.01.2018 16:00:00 4,2 1,2 3,4 21 11 40 21 WSW 989,6 10 0,0
16.01.2018 15:00:00 4,2 1,1 2,9 22 12 54 29 WSW 989,2 10 0,1
16.01.2018 14:00:00 4,6 0,7 3,8 25 14 58 31 W 988,8 31 0,1
16.01.2018 13:00:00 5,6 1,8 5,5 15 8 47 25 W 988,5 10 -
16.01.2018 12:00:00 4,4 2,0 4,2 24 13 43 23 WSW 988,4 10 0,0
16.01.2018 11:00:00 3,1 1,5 2,8 18 10 43 23 WSW 987,8 10 0,0
16.01.2018 10:00:00 3,9 1,7 3,5 22 12 36 19 WSW 987,1 10 0,0
16.01.2018 09:00:00 3,8 2,2 3,2 18 10 32 18 WSW 987,0 10 0,0
16.01.2018 08:00:00 4,0 2,3 3,3 22 12 36 19 WSW 986,8 10 0,0
16.01.2018 07:00:00 3,7 2,6 3,4 21 11 47 25 WSW 986,7 3,1 0,0
16.01.2018 06:00:00 3,6 2,1 3,1 24 13 36 19 SW 986,9 10 0,0
16.01.2018 05:00:00 4,3 1,8 3,6 24 13 54 29 WSW 987,2 10 0,0
16.01.2018 04:00:00 5,1 3,3 4,1 24 13 40 21 SW 987,5 10 0,0
16.01.2018 03:00:00 5,6 3,4 5,0 22 12 43 23 WSW 988,2 10 0,0
16.01.2018 02:00:00 5,7 3,5 5,1 28 15 47 25 WSW 988,4 10 0,0
16.01.2018 01:00:00 5,7 4,0 5,1 24 13 36 19 WSW 988,3 10 0,0
16.01.2018 00:00:00 5,9 4,4 5,0 21 11 43 23 WSW 987,5 10 0,0
15.01.2018 23:00:00 6,9 5,7 6,5 29 16 43 23 WSW 986,8 10 0,0
15.01.2018 22:00:00 6,3 5,4 5,6 34 18 50 27 SSW 986,0 9 0,0
15.01.2018 21:00:00 4,9 3,8 4,5 29 16 58 31 S 986,5 7 0,0
15.01.2018 20:00:00 5,1 3,4 4,6 35 19 58 31 S 988,0 10 0,0
15.01.2018 19:00:00 5,5 4,0 5,1 34 18 54 29 S 989,9 10 0,0
15.01.2018 18:00:00 5,5 4,3 5,2 31 17 54 29 S 991,6 9 0,0
15.01.2018 17:00:00 5,6 4,1 5,1 34 18 54 29 S 993,3 10 0,0
15.01.2018 16:00:00 5,6 3,9 5,2 35 19 58 31 S 994,8 8 0,0
15.01.2018 15:00:00 5,6 3,7 5,2 34 18 54 29 S 996,7 10 0,0
15.01.2018 14:00:00 5,2 3,0 4,8 29 16 47 25 S 998,8 10 0,0
15.01.2018 13:00:00 5,2 2,8 5,0 34 18 50 27 S 1001,1 10 0,0
15.01.2018 12:00:00 4,8 2,3 4,5 28 15 50 27 S 1003,3 10 0,0
15.01.2018 11:00:00 4,2 2,6 4,0 26 14 40 21 S 1005,4 8 0,0
15.01.2018 10:00:00 3,4 1,3 3,2 26 14 36 19 S 1006,4 9 0,0
15.01.2018 09:00:00 3,0 0,7 2,6 22 12 40 21 S 1007,5 8 0,0
15.01.2018 08:00:00 2,7 0,5 2,3 22 12 32 18 S 1008,5 9 0,0
15.01.2018 07:00:00 2,2 -0,1 2,0 21 11 36 19 S 1009,7 10 0,0
15.01.2018 06:00:00 1,9 -0,4 1,5 18 10 29 16 S 1010,6 10 0,0
15.01.2018 05:00:00 1,7 -0,9 1,2 18 10 29 16 S 1012,2 10 0,0
15.01.2018 04:00:00 1,4 -1,1 0,8 16 9 29 16 S 1013,4 10 0,0
15.01.2018 03:00:00 0,7 -1,8 0,2 16 9 29 16 S 1014,6 10 0,0
15.01.2018 02:00:00 -0,2 -2,6 -1,2 15 8 25 14 SSE 1015,3 10 0,0
15.01.2018 01:00:00 0,1 -2,8 -0,7 18 10 29 16 SSE 1016,2 10 0,0
15.01.2018 00:00:00 0,0 -3,1 -1,2 13 7 22 12 SE 1016,9 10 0,0
14.01.2018 23:00:00 -0,4 -3,3 -1,7 11 6 18 10 SE 1018,2 10 0,0
14.01.2018 22:00:00 -0,2 -3,3 -1,3 13 7 22 12 SE 1018,6 10 0,0
14.01.2018 21:00:00 -0,4 -3,2 -1,8 11 6 18 10 ESE 1019,2 10 0,0
14.01.2018 20:00:00 -0,5 -3,0 -1,9 9 5 14 8 ESE 1020,0 10 0,0
14.01.2018 19:00:00 0,3 -2,9 -0,5 13 7 18 10 E 1019,9 10 0,0
14.01.2018 18:00:00 1,9 -2,1 1,5 9 5 18 10 ESE 1020,9 10 0,0
14.01.2018 17:00:00 2,1 -2,1 1,6 8 4 22 12 ESE 1021,3 10 0,0
14.01.2018 16:00:00 2,1 -2,3 1,7 15 8 25 14 SE 1021,5 10 0,0
14.01.2018 15:00:00 1,9 -2,3 1,8 13 7 22 12 ESE 1021,3 10 0,0
14.01.2018 14:00:00 1,6 -2,3 1,5 13 7 25 14 ESE 1021,8 10 0,0
14.01.2018 13:00:00 1,2 -2,8 1,1 13 7 25 14 ESE 1022,5 10 0,0
14.01.2018 12:00:00 0,9 -3,3 0,8 16 9 29 16 ESE 1023,1 10 0,0
14.01.2018 11:00:00 0,7 -3,2 0,6 16 9 29 16 E 1023,7 10 0,0
14.01.2018 10:00:00 0,5 -3,0 0,3 16 9 32 18 E 1023,7 10 0,0
14.01.2018 09:00:00 0,5 -3,1 0,2 16 9 32 18 E 1023,7 10 0,0
14.01.2018 08:00:00 0,5 -2,7 0,3 18 10 29 16 E 1023,9 10 0,0
14.01.2018 07:00:00 0,6 -2,3 0,4 16 9 29 16 E 1024,1 10 0,0
14.01.2018 06:00:00 0,5 -2,0 0,3 16 9 29 16 E 1024,2 10 0,0
14.01.2018 05:00:00 0,5 -2,1 0,3 16 9 29 16 E 1024,3 10 0,0
14.01.2018 04:00:00 0,7 -2,0 0,5 15 8 25 14 E 1024,7 10 0,0
14.01.2018 03:00:00 0,9 -1,6 0,7 15 8 25 14 E 1024,8 10 0,0
14.01.2018 02:00:00 1,2 -1,1 1,0 16 9 29 16 E 1024,8 10 0,0
14.01.2018 01:00:00 1,7 -0,1 1,5 16 9 29 16 E 1025,1 6 0,0
14.01.2018 00:00:00 2,1 0,3 1,7 16 9 29 16 E 1025,3 5 0,0
13.01.2018 23:00:00 2,3 0,6 2,0 18 10 29 16 E 1025,6 5 0,0
13.01.2018 22:00:00 2,4 0,7 2,0 16 9 29 16 E 1025,6 5 0,0
13.01.2018 21:00:00 2,6 0,8 2,1 18 10 29 16 E 1025,7 7 0,0
13.01.2018 20:00:00 3,3 1,6 3,0 21 11 32 18 E 1025,8 6 0,0
13.01.2018 19:00:00 3,7 2,0 3,4 16 9 29 16 E 1025,5 6 0,0
13.01.2018 18:00:00 3,9 2,1 3,6 15 8 32 18 E 1025,7 7 0,0
13.01.2018 17:00:00 4,3 2,5 3,9 21 11 32 18 E 1025,7 8 0,0
13.01.2018 16:00:00 4,7 2,9 4,3 15 8 25 14 E 1025,5 8 0,0
13.01.2018 15:00:00 5,1 3,4 4,9 15 8 22 12 ESE 1025,5 8 0,0
13.01.2018 14:00:00 4,8 3,7 4,8 11 6 22 12 ESE 1026,2 5 0,0
13.01.2018 13:00:00 4,4 3,5 4,4 11 6 22 12 ESE 1026,6 4,2 0,0
13.01.2018 12:00:00 4,0 3,5 4,0 13 7 22 12 ESE 1026,8 3,5 0,0
13.01.2018 11:00:00 3,6 3,2 3,7 13 7 22 12 ESE 1027,0 2,6 0,0
13.01.2018 10:00:00 3,3 3,2 3,3 13 7 22 12 ESE 1026,8 0,9 0,0
13.01.2018 09:00:00 3,1 3,0 3,2 13 7 22 12 ESE 1026,7 0,8 0,0
13.01.2018 08:00:00 3,1 2,9 3,2 11 6 18 10 E 1026,4 1,5 0,0
13.01.2018 07:00:00 3,2 3,1 3,1 9 5 14 8 ESE 1026,5 1,1 0,0
13.01.2018 06:00:00 3,1 3,0 3,1 11 6 18 10 ESE 1026,6 1,0 0,0
13.01.2018 05:00:00 3,1 3,0 3,1 11 6 22 12 ESE 1026,9 1,2 0,0
13.01.2018 04:00:00 3,1 3,0 3,1 11 6 18 10 ESE 1027,0 0,7 0,0
13.01.2018 03:00:00 3,1 2,9 3,1 9 5 18 10 E 1027,6 0,8 0,0
13.01.2018 02:00:00 3,1 3,0 3,1 11 6 18 10 E 1027,6 0,8 0,0
13.01.2018 01:00:00 3,0 2,9 3,0 11 6 18 10 E 1027,9 1,0 0,0
13.01.2018 00:00:00 3,0 2,7 3,0 8 4 14 8 E 1028,1 3,6 0,0
12.01.2018 23:00:00 3,0 2,9 3,1 11 6 18 10 E 1028,0 0,9 0,0
12.01.2018 22:00:00 3,2 2,7 3,2 11 6 14 8 E 1028,1 5 0,0
12.01.2018 21:00:00 3,4 2,8 3,2 8 4 14 8 E 1028,1 5 0,0
12.01.2018 20:00:00 3,3 2,9 3,3 9 5 14 8 E 1027,8 3,0 0,0
12.01.2018 19:00:00 3,4 2,8 3,3 8 4 14 8 E 1027,6 3,0 0,0
12.01.2018 18:00:00 3,3 3,1 3,3 9 5 14 8 E 1027,7 1,9 0,0
12.01.2018 17:00:00 3,5 2,9 3,4 9 5 14 8 E 1027,5 4,2 0,0
12.01.2018 16:00:00 3,6 2,9 3,6 5 3 11 6 E 1027,2 4,6 0,0
12.01.2018 15:00:00 3,8 2,9 3,9 8 4 11 6 E 1026,9 4,7 0,0
12.01.2018 14:00:00 3,6 2,9 3,8 5 3 11 6 E 1026,7 2,9 0,0
12.01.2018 13:00:00 3,7 3,3 3,9 8 4 11 6 ENE 1026,9 2,7 0,0
12.01.2018 12:00:00 3,7 3,3 3,9 5 3 7 4 NE 1027,2 2,7 0,0
12.01.2018 11:00:00 3,5 3,1 3,6 5 3 7 4 NNE 1027,2 2,6 0,0
12.01.2018 10:00:00 3,2 2,7 3,2 8 4 11 6 NNW 1026,8 6 0,0
12.01.2018 09:00:00 2,7 2,5 2,5 4 2 7 4 NW 1026,3 6 0,0
12.01.2018 08:00:00 2,7 2,0 2,5 2 1 4 2 NW 1025,8 10 0,0
12.01.2018 07:00:00 2,9 2,1 2,7 5 3 11 6 N 1025,5 10 0,0
12.01.2018 06:00:00 3,0 2,2 2,8 5 3 11 6 NNE 1025,2 10 0,0
12.01.2018 05:00:00 3,4 2,9 3,3 9 5 18 10 ENE 1025,1 7 0,0
12.01.2018 04:00:00 4,2 3,6 4,1 11 6 14 8 NE 1024,8 2,8 0,0
12.01.2018 03:00:00 4,5 4,1 4,3 8 4 14 8 N 1024,7 2,8 0,0
12.01.2018 02:00:00 4,6 4,0 4,4 9 5 14 8 N 1024,5 3,6 0,0
12.01.2018 01:00:00 4,5 4,0 4,1 9 5 14 8 N 1024,4 3,6 0,0
12.01.2018 00:00:00 3,6 3,4 3,2 9 5 14 8 NNW 1023,9 2,7 0,0
11.01.2018 23:00:00 3,3 3,0 3,0 9 5 11 6 NNW 1023,5 2,1 0,0
11.01.2018 22:00:00 3,0 2,7 2,6 5 3 11 6 NNW 1023,1 2,3 0,0
11.01.2018 21:00:00 3,3 3,0 3,0 9 5 14 8 NE 1022,7 3,1 0,0
11.01.2018 20:00:00 3,1 2,9 2,2 9 5 14 8 NE 1022,2 2,8 0,0
11.01.2018 19:00:00 0,1 -0,3 -2,5 4 2 7 4 NW 1021,7 0,4 0,0
11.01.2018 18:00:00 1,2 0,8 -1,9 0 0 11 6 N 1020,9 1,6 0,0
11.01.2018 17:00:00 2,2 1,7 -0,4 2 1 11 6 - 1020,4 3,8 0,0
11.01.2018 16:00:00 4,3 3,4 2,0 4 2 11 6 - 1019,8 6 0,0
11.01.2018 15:00:00 5,6 4,1 5,4 11 6 18 10 NE 1019,1 8 0,0
11.01.2018 14:00:00 6,7 4,7 6,8 13 7 18 10 NE 1018,5 10 0,0
11.01.2018 13:00:00 6,9 4,8 7,2 7 4 11 6 N 1018,0 11 0,0
11.01.2018 12:00:00 5,4 4,0 5,3 5 3 11 6 NE 1017,6 10 0,0
11.01.2018 11:00:00 5,1 4,1 5,0 5 3 7 4 NNE 1017,4 8 0,0
11.01.2018 10:00:00 3,7 3,2 3,5 5 3 11 6 ENE 1016,5 5 0,0
11.01.2018 09:00:00 3,4 3,0 2,9 4 2 7 4 NNE 1016,1 4,8 0,0
11.01.2018 08:00:00 3,5 3,2 3,2 5 3 11 6 E 1015,1 4,8 0,0

tt = Température de l'air
td = dewpoint
tt 5cm = Température de l'air 5cm
ff = Vitesse du vent
fx = gusts
dd = Direction du vent
ppp = reduced air pressure
vv = visibility
rr = Quantités de précipitations

stations d'obs. à proximité